GLOBALSTAR M052 [-]

Last updated on July 6, 2021, 3:36 p.m. UTC

1 25773U 99031D   21186.93804747 -.00000030  00000-0  12024-2 0  9991
2 25773  51.9891 351.5062 0001820 308.8148 172.5848 11.15035948317625
UTC
Height (km)
Latitude
Longitude
Inclination
Orbital Period
UTC large
Height (km)
Speed (km/s)
/
Latitude / Longitude
Inclination (degrees)
Orbital Period (minutes)
Azimuth
Elevation
Range (km)
Doppler Factor
iOS Compass Heading
iOS Angle